Starlink 6077

operational
NORAD ID: 56097 Int'l Des: 2023-046 Owner: SPXS Country: US Constellation: starlink
LEOCIRCULAR

Über Starlink 6077

Beschreibung wird geladen...

Live-Position

3D-Globus wird geladen...

Nächste Überflüge

Höhenverlauf

Altitude vs Time

uPlot chart will show altitude changes over time

Zweizeiliger Elementsatz

1 56097U 23046E 25304.68317608 -.00000710 00000-0 -37462-4 0 9991
2 56097 43.0034 88.0871 0001152 273.0929 86.9781 15.02538477143252
Epoch: 31. Okt. 2025 • Age: 7 hours

Aktueller Status

Höhe 565.0 km
Geschwindigkeit 7.58 km/s
Subsatellitenpunkt -25.67°S, 99.51°W
Startdatum 29. März 2023
Alter 2.5 years
Typ internet

Technische Details

Klassifizierung Payload
Masse 305.00 kg
Trockenmasse 290.00 kg
Gesamtmasse 305.00 kg
Länge 0.20 m
Durchmesser 2.80 m
Spannweite 9.00 m
Form Box + pan
Hersteller SPXS
Bus-Typ Starlink
Phasenstatus In Orbit
Besitzer/Staat SPXS/US

Große Konstellationen

Loading constellations...